Temperature
14 13 11 13 13 11 12 14 15 16 16 17 17 16 13 9 6 3 1 0 1 1 1 -0 -1 -2 -2 -3 -3 -4 -5 -5 -6 -7 -7 -8 -9 -9 -10 -10 -11 -11 -12 -12
13 11 10 10 11 11 11 12 13 13 14 16 15 11 9 7 5 3 2 1 1 1 1 -0 -1 -2 -2 -3 -3 -4 -5 -5 -6 -7 -7 -8 -8 -9 -9 -10 -11 -11 -11 -11
15 12 11 14 14 11 10 11 12 13 15 16 12 10 9 8 6 5 4 3 2 2 1 0 -1 -1 -2 -3 -3 -4 -5 -5 -6 -7 -7 -8 -8 -9 -9 -10 -10 -11 -11 -11
12 13 14 18 12 12 11 12 11 12 14 14 12 10 8 8 7 6 5 4 3 2 1 0 -1 -1 -2 -3 -3 -4 -5 -5 -6 -6 -7 -7 -8 -8 -9 -9 -10 -10 -11 -11
11 14 15 16 11 10 11 13 13 11 12 12 8 6 9 12 10 8 7 5 4 2 1 0 -1 -1 -2 -3 -3 -4 -5 -5 -6 -6 -6 -7 -7 -8 -9 -9 -9 -10 -11 -11
9 12 14 18 11 9 11 14 15 11 12 11 5 11 13 11 10 8 6 5 3 2 1 -0 -1 -1 -2 -3 -3 -4 -5 -5 -5 -6 -6 -7 -7 -8 -8 -9 -9 -10 -10 -10
9 10 14 14 8 9 14 18 17 15 13 10 8 11 11 10 9 8 6 4 3 1 1 -0 -1 -1 -2 -3 -3 -4 -4 -5 -5 -5 -6 -6 -6 -7 -8 -8 -9 -10 -10 -10
9 10 13 10 8 12 17 18 17 16 15 13 13 12 11 10 8 7 6 4 2 1 0 -0 -1 -1 -2 -3 -3 -4 -4 -5 -5 -5 -5 -6 -6 -6 -7 -8 -8 -10 -10 -10
11 14 14 11 13 16 16 16 16 16 15 14 12 12 11 10 8 7 6 4 3 1 0 -0 -1 -1 -2 -3 -3 -4 -4 -4 -5 -5 -5 -5 -6 -6 -6 -7 -8 -10 -10 -10
9 11 12 11 14 16 16 16 17 16 15 14 13 12 11 10 8 7 6 4 3 1 0 -0 -1 -1 -2 -3 -3 -3 -4 -4 -4 -5 -5 -5 -5 -6 -6 -7 -8 -10 -11 -11
10 12 11 14 17 19 18 18 17 17 16 15 14 13 11 10 9 7 6 5 3 2 1 0 -1 -1 -2 -2 -3 -3 -4 -4 -4 -4 -5 -5 -5 -6 -6 -7 -8 -10 -10 -11
15 16 14 17 18 18 17 17 17 16 16 15 14 13 12 10 9 8 6 5 4 2 1 0 -1 -1 -2 -2 -3 -3 -4 -4 -4 -4 -4 -5 -5 -5 -6 -6 -7 -8 -9 -10
16 17 17 17 17 17 17 17 17 16 15 15 14 13 12 10 9 8 6 5 4 3 1 0 -1 -1 -2 -2 -3 -3 -3 -4 -4 -4 -5 -5 -5 -5 -6 -6 -7 -7 -8 -8
15 15 14 16 16 17 16 16 16 15 15 14 13 12 11 10 9 8 7 6 4 3 1 0 -0 -1 -2 -2 -3 -3 -3 -4 -4 -4 -5 -5 -5 -6 -6 -6 -7 -7 -8 -8
14 14 14 15 15 15 16 15 15 15 15 14 13 12 11 10 9 8 7 5 4 2 1 0 -0 -1 -2 -2 -2 -3 -3 -4 -4 -5 -5 -5 -6 -6 -6 -7 -7 -7 -7 -8
14 14 14 14 14 15 14 14 14 15 15 14 13 13 12 10 9 8 6 5 4 3 2 1 0 -1 -1 -2 -2 -3 -3 -4 -4 -5 -5 -5 -6 -6 -6 -7 -7 -7 -8 -8
12 12 12 12 13 14 14 14 15 15 14 14 13 12 11 9 8 7 6 5 4 3 2 1 1 -1 -1 -2 -2 -3 -3 -4 -4 -5 -5 -5 -6 -6 -6 -7 -7 -8 -8 -8
11 12 12 13 13 13 14 14 14 14 14 13 12 10 10 9 8 8 6 5 4 3 2 1 0 -1 -1 -2 -2 -3 -3 -4 -4 -5 -5 -5 -6 -6 -6 -7 -7 -8 -8 -8
12 12 13 13 13 13 12 12 12 12 11 10 10 10 10 10 9 7 6 5 4 3 2 1 0 -1 -1 -2 -2 -3 -3 -4 -4 -5 -5 -5 -6 -6 -6 -7 -7 -8 -8 -8
12 12 12 12 12 12 11 11 11 10 10 10 9 9 9 9 8 6 6 5 5 5 4 2 0 -1 -1 -2 -2 -3 -3 -4 -4 -5 -5 -5 -6 -6 -7 -7 -7 -8 -8 -8
10 10 10 11 11 11 11 10 10 10 10 10 9 9 9 8 7 6 6 5 5 4 3 2 1 -0 -1 -2 -2 -3 -3 -3 -4 -4 -5 -5 -6 -6 -7 -7 -7 -8 -8 -8
9 9 9 9 9 9 10 10 9 9 9 9 9 8 7 6 6 6 6 6 6 4 3 2 1 0 -1 -2 -2 -2 -3 -3 -4 -4 -5 -5 -6 -6 -6 -7 -7 -8 -8 -8
8 8 8 8 8 9 9 9 9 9 8 7 7 7 6 6 6 6 6 5 5 4 4 3 1 0 -1 -2 -2 -2 -3 -3 -4 -4 -5 -5 -6 -6 -6 -7 -7 -8 -8 -8
6 7 7 7 8 8 8 8 8 8 7 6 5 5 4 4 5 5 5 6 5 4 4 3 2 0 -1 -1 -2 -2 -2 -3 -3 -4 -4 -5 -6 -6 -6 -7 -7 -8 -8 -8
6 6 6 6 7 7 7 7 7 7 6 5 4 3 3 3 3 5 4 5 5 4 4 3 1 0 -1 -1 -1 -2 -2 -3 -3 -4 -4 -5 -5 -6 -6 -7 -7 -8 -8 -8
4 4 5 5 6 6 6 6 6 6 4 3 3 2 2 1 1 2 3 4 4 4 3 2 1 0 -1 -1 -1 -2 -2 -3 -3 -4 -4 -5 -5 -6 -6 -7 -7 -8 -8 -8
3 3 4 4 5 5 6 6 5 5 4 3 2 1 1 1 1 1 2 2 3 3 3 2 1 0 0 -0 -1 -2 -2 -3 -3 -3 -4 -5 -5 -6 -6 -7 -7 -8 -8 -8
Wind_Speed
9 6 5 8 12 14 16 13 11 13 13 21 20 16 12 8 9 13 15 16 16 14 12 11 9 8 6 5 4 5 6 7 8 9 10 10 11 11 12 12 13 14 15 15
6 4 6 9 15 18 18 15 18 21 22 23 16 9 8 8 11 15 17 18 17 15 13 12 11 9 7 5 4 5 6 7 8 8 9 10 10 11 12 12 13 13 14 15
4 1 6 12 13 18 11 13 13 14 13 9 7 10 10 10 13 16 17 18 18 16 14 12 11 9 7 6 4 5 6 7 8 8 9 10 10 11 11 12 12 13 13 14
4 4 9 4 3 11 10 11 16 16 17 15 13 11 10 11 14 16 16 17 17 15 13 12 10 8 7 5 5 6 7 7 7 8 9 10 11 11 12 11 12 12 13 14
3 5 10 6 5 8 8 9 14 18 20 17 3 7 10 12 15 15 16 16 16 15 13 12 11 9 7 6 6 6 7 7 7 8 9 10 11 11 11 11 12 12 12 13
4 5 8 4 5 5 3 7 7 13 16 9 3 7 7 5 11 13 13 13 13 13 13 12 11 10 8 7 7 7 7 7 8 8 9 10 11 12 11 11 11 12 12 13
8 8 11 2 7 8 4 5 4 11 11 9 10 10 2 5 9 12 14 14 14 14 13 12 11 10 9 8 8 7 6 7 8 9 9 10 11 11 11 11 12 12 12 12
8 8 11 8 11 11 9 2 3 7 9 11 14 9 6 8 11 14 15 15 16 14 12 11 11 11 10 10 8 6 6 7 8 8 8 8 10 11 11 10 11 11 12 12
13 11 2 13 13 9 4 6 7 7 10 12 13 12 11 10 13 15 16 16 15 14 13 11 12 12 11 9 7 6 6 7 7 8 8 8 9 10 9 8 8 10 10 11
9 15 11 13 16 15 14 16 16 13 11 11 14 13 13 12 13 15 16 16 15 15 14 13 13 13 11 8 7 6 6 6 6 7 7 7 7 7 7 7 8 10 10 11
12 11 9 14 18 21 20 18 19 18 16 16 16 15 15 14 16 16 16 16 16 16 15 15 14 13 12 10 8 7 6 6 6 6 6 6 6 6 7 7 8 10 10 10
16 10 9 12 7 9 14 17 17 16 16 16 17 17 16 15 15 16 17 17 16 16 16 15 14 13 12 11 10 8 6 5 4 4 5 5 6 6 5 7 10 11 11 12
23 11 12 17 12 11 14 16 15 15 16 15 15 16 16 14 14 16 17 19 19 19 17 15 14 14 13 12 11 10 7 5 4 4 4 5 5 6 7 6 7 7 10 12
19 12 12 16 19 20 18 17 14 13 15 14 13 14 15 15 15 18 20 20 19 18 17 16 15 14 13 13 12 10 8 7 6 4 4 4 4 5 5 7 8 7 8 10
20 18 20 21 23 20 14 12 14 16 14 14 14 15 17 18 19 20 19 18 18 18 17 17 16 15 14 13 13 11 8 6 5 4 4 4 4 4 5 6 6 7 7 8
15 16 20 23 28 28 24 21 21 23 18 16 16 18 19 19 17 17 18 20 21 21 19 18 17 15 15 14 13 10 8 10 7 5 4 4 3 3 4 5 5 6 7 7
16 20 22 24 30 31 27 24 23 22 16 17 18 17 17 17 17 18 19 21 20 20 19 19 17 15 15 15 13 9 8 8 10 6 5 4 4 3 3 4 5 5 6 7
28 30 28 24 25 27 25 21 18 17 15 14 13 16 19 21 22 21 20 19 18 17 18 18 16 16 16 15 13 9 8 7 7 6 5 5 4 3 3 4 4 5 6 6
24 25 26 25 25 24 21 17 13 11 11 12 16 20 21 22 20 19 20 21 21 21 19 18 22 19 16 17 15 10 9 9 8 7 6 6 5 4 3 3 4 4 5 6
18 19 20 20 19 16 16 15 13 13 13 15 17 18 20 20 19 19 21 21 19 16 17 20 20 17 16 17 18 10 11 10 9 8 7 6 5 5 4 3 3 4 4 5
16 15 15 16 19 18 18 18 16 15 13 16 19 20 19 18 19 20 20 18 17 16 19 25 19 16 15 16 19 11 11 11 10 9 8 7 6 5 4 4 3 3 4 4
13 14 16 16 18 19 15 12 12 13 13 15 17 16 16 18 20 20 21 14 16 22 18 17 16 19 21 21 14 13 12 12 10 9 8 8 7 6 5 5 4 3 4 4
16 15 15 15 15 15 13 11 11 11 13 14 16 18 18 17 17 17 17 13 15 25 20 16 21 28 28 19 14 14 13 13 11 10 9 8 8 7 6 5 4 4 4 4
16 14 13 12 10 10 12 11 9 9 10 11 13 14 15 14 14 15 9 18 24 26 18 21 29 31 29 15 14 14 13 13 12 11 10 9 8 7 6 5 5 4 4 5
13 11 10 10 10 10 10 9 7 7 8 8 10 12 13 13 11 13 12 18 26 26 16 22 30 31 22 14 15 14 13 12 12 11 10 10 9 8 7 6 6 5 4 4
12 12 11 10 10 10 8 6 6 6 6 7 8 9 10 10 10 11 12 16 22 24 18 16 20 24 18 16 15 15 13 13 13 12 11 10 10 9 8 7 8 6 5 4
12 12 10 11 10 9 7 6 7 7 7 8 8 8 10 11 11 12 14 15 16 17 15 15 17 18 17 16 15 14 12 12 12 12 11 10 9 9 8 9 7 5 5 5
Wind_Direction
265 264 244 245 227 203 211 226 242 256 263 279 295 304 295 266 218 200 195 194 194 194 193 194 199 206 215 233 255 276 290 298 306 312 315 315 316 319 321 323 325 325 325 325
269 245 234 256 241 224 227 236 246 262 274 273 284 284 266 241 211 204 202 199 197 195 193 195 198 201 206 222 244 269 280 287 295 304 310 312 315 317 319 321 323 324 324 324
266 225 288 267 235 201 204 214 215 232 251 274 270 264 265 245 215 212 206 199 196 195 195 193 193 191 197 211 230 254 267 277 288 296 302 307 311 314 318 320 320 319 319 320
281 294 247 256 120 183 208 230 220 240 261 270 274 288 275 247 224 215 204 197 195 192 188 185 179 178 186 202 229 250 264 271 278 287 296 303 309 312 317 317 316 314 316 318
237 260 276 268 183 179 204 264 226 231 253 266 301 301 271 229 217 213 200 194 190 185 178 172 172 174 178 204 226 243 256 266 276 282 290 299 305 311 316 315 313 312 315 319
208 231 248 260 144 157 161 274 230 212 239 240 197 280 299 174 196 198 189 182 175 170 168 171 174 172 184 208 223 238 251 266 278 285 290 297 304 310 313 313 310 313 315 319
218 237 263 244 138 152 193 269 200 205 224 201 209 236 267 163 183 184 179 173 169 167 172 176 170 173 194 212 226 236 252 270 280 286 292 298 301 306 309 310 310 313 316 320
187 208 251 163 153 194 228 257 212 218 221 216 229 235 211 195 185 179 176 174 172 172 176 172 171 181 201 216 222 227 248 268 280 289 294 294 302 307 311 313 313 317 320 323
196 215 267 173 203 225 264 255 246 234 231 225 234 233 218 204 192 186 182 178 177 177 174 175 182 192 206 211 206 219 245 266 281 291 294 297 304 309 315 319 318 319 321 323
236 256 247 228 241 253 248 251 260 254 243 225 229 231 214 202 193 189 186 182 178 178 182 187 191 199 208 201 198 217 244 266 282 291 298 305 307 309 315 317 319 321 326 329
242 260 288 258 236 243 251 253 257 255 245 235 231 229 213 203 195 190 186 183 182 186 190 192 191 198 201 199 199 215 237 258 278 288 298 305 309 311 311 310 316 323 327 327
249 231 224 264 243 226 238 249 248 247 246 233 224 225 211 205 195 188 185 182 185 190 193 193 191 195 195 193 196 207 225 244 266 285 298 308 315 316 307 307 321 329 331 332
255 256 248 271 275 251 250 256 249 238 238 236 223 217 208 201 191 187 185 186 189 192 193 191 190 194 191 188 192 202 214 228 250 268 288 304 314 320 325 327 325 333 341 341
247 256 268 263 263 265 259 254 253 247 241 233 220 207 203 197 190 190 193 193 191 189 190 190 191 195 188 185 189 199 208 219 234 251 269 284 298 308 314 322 329 336 341 343
240 229 240 258 267 267 259 252 251 249 239 227 212 202 197 195 196 197 194 187 185 187 190 190 194 194 183 183 188 194 199 207 216 233 247 264 280 295 306 314 319 325 332 341
240 232 240 253 261 265 262 255 252 255 244 224 212 207 204 201 199 193 187 182 184 190 191 191 195 190 180 182 186 191 199 206 211 221 230 244 259 282 304 315 320 325 333 338
245 249 247 251 258 263 261 256 251 253 243 224 215 205 198 197 197 194 191 190 192 192 189 190 191 181 179 182 184 187 189 195 205 213 221 230 243 265 291 306 314 320 325 328
248 253 256 256 261 266 267 262 255 248 239 225 204 197 197 198 200 196 189 186 189 193 193 190 183 177 179 181 183 183 183 186 191 202 209 217 230 245 269 290 306 315 321 326
253 256 261 264 265 269 273 275 268 251 230 205 200 204 205 206 202 191 181 181 186 194 194 186 181 177 180 183 179 181 183 184 189 196 203 212 221 231 248 273 296 311 317 323
264 266 270 273 276 275 275 275 270 255 229 208 206 208 209 206 196 186 184 191 197 192 177 177 179 179 181 182 179 181 184 187 191 193 197 205 213 221 233 254 281 300 311 319
275 280 281 280 281 281 277 276 270 257 230 207 207 210 209 199 190 185 187 198 200 181 172 176 178 178 179 180 181 181 184 187 191 194 196 201 206 213 223 237 258 280 298 310
286 286 285 287 290 291 288 276 261 251 234 219 214 208 201 195 191 192 198 198 181 175 172 177 180 180 178 177 181 182 185 188 191 193 196 199 202 207 214 224 241 261 280 297
295 292 290 289 286 288 290 280 261 249 238 226 215 206 202 197 191 191 197 195 174 176 175 180 181 180 178 177 180 182 185 188 191 193 196 197 199 203 208 216 228 245 266 284
295 291 288 287 287 287 288 287 268 253 244 234 222 209 200 196 198 202 193 179 177 177 180 181 179 180 177 178 180 183 185 188 190 192 193 193 195 199 204 210 219 232 249 268
287 285 288 289 289 287 283 285 278 260 248 241 228 211 205 203 197 193 184 177 177 175 177 181 181 180 178 178 180 183 185 188 188 187 189 191 193 196 200 205 212 222 236 254
282 285 287 278 277 280 282 275 264 251 237 237 229 211 206 203 193 182 179 179 178 176 173 176 180 182 181 180 182 184 184 186 190 191 191 190 193 194 197 201 208 215 227 242
278 280 281 284 279 265 258 250 250 245 227 223 225 211 202 197 189 182 179 177 178 177 174 175 178 181 181 181 182 182 182 182 185 186 186 189 190 193 194 196 201 206 215 231
Height
1572 1573 1576 1571 1571 1576 1573 1564 1560 1546 1542 1530 1528 1529 1530 1530 1530 1531 1531 1533 1536 1539 1542 1543 1544 1545 1544 1543 1541 1539 1536 1532 1528 1524 1519 1514 1508 1503 1497 1491 1485 1479 1473 1468
1571 1572 1575 1572 1564 1566 1567 1563 1557 1550 1541 1527 1526 1526 1525 1525 1524 1524 1524 1527 1530 1533 1536 1538 1539 1540 1540 1539 1538 1535 1533 1529 1525 1521 1516 1511 1506 1500 1494 1489 1483 1477 1471 1465
1564 1568 1568 1553 1540 1552 1554 1549 1546 1541 1528 1521 1523 1522 1521 1519 1517 1517 1518 1520 1524 1527 1531 1533 1534 1535 1535 1535 1534 1532 1529 1526 1522 1518 1513 1508 1503 1497 1492 1486 1481 1475 1469 1464
1570 1565 1565 1529 1536 1538 1540 1537 1535 1529 1522 1520 1519 1517 1514 1512 1511 1510 1512 1514 1518 1522 1525 1528 1529 1530 1531 1531 1530 1528 1526 1523 1519 1515 1511 1506 1501 1495 1490 1484 1479 1473 1467 1462
1574 1560 1544 1529 1535 1537 1537 1528 1521 1522 1517 1515 1514 1513 1507 1505 1504 1505 1507 1510 1514 1517 1520 1523 1524 1526 1526 1526 1526 1524 1522 1520 1516 1512 1508 1503 1498 1493 1487 1482 1476 1471 1466 1461
1575 1565 1551 1522 1530 1531 1534 1526 1512 1513 1511 1511 1513 1511 1502 1501 1500 1500 1503 1505 1509 1512 1515 1517 1520 1521 1522 1522 1521 1520 1519 1516 1513 1509 1505 1500 1496 1490 1485 1480 1474 1469 1465 1460
1568 1561 1537 1522 1528 1532 1530 1514 1507 1506 1505 1505 1505 1502 1498 1496 1496 1497 1498 1501 1504 1507 1510 1513 1515 1516 1517 1517 1517 1516 1515 1513 1510 1507 1503 1498 1493 1488 1483 1477 1472 1468 1463 1458
1557 1558 1536 1522 1525 1521 1508 1502 1502 1501 1500 1498 1496 1494 1492 1491 1491 1492 1493 1495 1498 1501 1504 1507 1509 1511 1512 1513 1513 1512 1511 1509 1507 1504 1500 1496 1491 1486 1481 1476 1470 1465 1461 1456
1532 1521 1510 1509 1505 1502 1501 1499 1497 1495 1493 1492 1489 1487 1485 1485 1485 1486 1487 1489 1492 1496 1499 1502 1504 1506 1507 1508 1508 1508 1507 1506 1504 1501 1498 1494 1489 1484 1479 1474 1468 1463 1459 1455
1523 1508 1504 1502 1500 1498 1496 1494 1490 1488 1486 1484 1481 1479 1478 1477 1478 1479 1481 1483 1486 1489 1492 1495 1498 1500 1502 1503 1504 1504 1503 1502 1501 1498 1495 1492 1488 1483 1477 1472 1466 1462 1458 1454
1510 1500 1499 1492 1491 1490 1488 1486 1483 1481 1478 1475 1473 1470 1470 1469 1469 1471 1473 1476 1479 1482 1486 1489 1493 1495 1497 1498 1499 1499 1499 1499 1498 1496 1493 1490 1486 1482 1476 1471 1466 1461 1456 1452
1492 1489 1491 1484 1484 1483 1480 1477 1474 1472 1468 1466 1464 1462 1461 1461 1462 1463 1465 1468 1471 1475 1479 1483 1486 1489 1491 1492 1494 1495 1495 1495 1494 1493 1491 1488 1485 1481 1476 1471 1466 1460 1455 1451
1481 1482 1481 1476 1475 1473 1470 1467 1464 1462 1458 1456 1454 1453 1452 1452 1453 1455 1457 1460 1464 1468 1472 1476 1479 1482 1485 1487 1488 1490 1491 1491 1490 1489 1488 1486 1483 1479 1475 1471 1466 1460 1455 1450
1473 1475 1472 1467 1465 1462 1459 1455 1453 1449 1447 1445 1444 1443 1443 1443 1444 1446 1448 1452 1457 1461 1465 1469 1473 1476 1479 1481 1483 1485 1486 1486 1486 1486 1485 1483 1480 1477 1473 1468 1464 1460 1454 1449
1462 1463 1460 1456 1453 1449 1446 1443 1439 1435 1433 1433 1432 1431 1431 1432 1433 1436 1440 1445 1449 1453 1457 1461 1465 1469 1472 1475 1477 1479 1480 1481 1482 1482 1481 1479 1477 1474 1471 1467 1463 1458 1453 1449
1450 1450 1448 1444 1439 1434 1432 1429 1426 1422 1421 1419 1419 1419 1421 1422 1425 1428 1431 1434 1438 1441 1446 1452 1457 1461 1465 1468 1471 1473 1475 1476 1477 1478 1477 1476 1474 1472 1469 1466 1462 1457 1453 1448
1441 1436 1434 1430 1425 1420 1417 1415 1412 1410 1409 1408 1407 1409 1411 1412 1413 1416 1419 1424 1429 1434 1439 1444 1449 1454 1458 1461 1465 1467 1469 1471 1472 1473 1473 1473 1471 1469 1467 1464 1460 1456 1452 1447
1425 1421 1419 1417 1413 1408 1404 1402 1400 1399 1397 1397 1399 1399 1398 1398 1399 1402 1408 1415 1420 1425 1430 1436 1442 1446 1451 1454 1458 1461 1463 1465 1467 1468 1469 1469 1468 1466 1464 1462 1459 1455 1451 1447
1412 1410 1408 1406 1403 1399 1395 1391 1390 1389 1388 1388 1387 1385 1385 1387 1390 1394 1399 1403 1407 1412 1418 1426 1432 1438 1443 1447 1451 1454 1457 1460 1462 1463 1464 1464 1464 1463 1461 1459 1457 1453 1450 1446
1405 1404 1401 1397 1393 1390 1385 1381 1379 1376 1374 1373 1372 1372 1372 1373 1377 1382 1387 1391 1395 1402 1410 1417 1423 1428 1434 1440 1444 1447 1451 1453 1456 1458 1459 1460 1460 1459 1458 1456 1454 1451 1448 1444
1398 1395 1392 1388 1383 1379 1375 1372 1368 1364 1361 1359 1358 1357 1358 1361 1365 1369 1375 1380 1388 1396 1402 1409 1415 1420 1426 1432 1436 1440 1444 1447 1449 1452 1453 1455 1455 1455 1455 1453 1451 1449 1446 1443
1391 1387 1383 1379 1374 1369 1365 1361 1357 1353 1350 1348 1346 1346 1348 1350 1353 1357 1363 1371 1379 1386 1393 1399 1405 1412 1419 1424 1428 1433 1437 1440 1443 1446 1448 1449 1450 1451 1450 1449 1448 1446 1443 1440
1384 1380 1375 1371 1366 1360 1356 1352 1347 1343 1340 1338 1336 1336 1337 1340 1343 1347 1352 1361 1369 1377 1384 1391 1397 1404 1411 1416 1421 1425 1430 1433 1436 1439 1442 1444 1445 1446 1446 1445 1444 1443 1440 1438
1376 1372 1368 1363 1358 1352 1347 1344 1340 1336 1332 1329 1328 1328 1330 1332 1335 1341 1347 1354 1361 1369 1376 1383 1390 1397 1403 1408 1413 1418 1422 1426 1430 1433 1435 1438 1439 1441 1441 1441 1440 1439 1437 1435
1368 1364 1360 1356 1351 1346 1341 1337 1332 1328 1325 1322 1320 1320 1322 1325 1328 1333 1340 1346 1354 1362 1369 1376 1383 1390 1395 1400 1405 1410 1415 1419 1423 1426 1429 1431 1433 1435 1436 1436 1436 1435 1434 1431
1359 1356 1353 1349 1345 1340 1336 1331 1327 1322 1319 1316 1314 1314 1316 1318 1322 1327 1333 1340 1347 1355 1362 1369 1375 1381 1386 1392 1398 1403 1408 1413 1416 1419 1422 1425 1428 1429 1431 1431 1431 1431 1430 1428
1349 1346 1343 1339 1337 1333 1330 1325 1322 1318 1314 1311 1309 1309 1310 1313 1316 1320 1326 1333 1340 1347 1354 1361 1367 1373 1378 1384 1390 1396 1401 1406 1410 1413 1416 1419 1421 1424 1425 1426 1426 1426 1425 1424